INTELSAT 31 (IS-31)

Last updated on Fri Sep 04 2026 00:02:59 GMT+0000 (Coordinated Universal Time)

1 41581U 16035A 26246.39836546 -.00000152 00000+0 00000+0 0 9995 2 41581 0.0329 253.1339 0001818 67.2046 70.5471 1.00269212 37461
UTC large
Height (km)
Speed (km/s)
/
Latitude / Longitude
Inclination (degrees)
Orbital Period (minutes)
Azimuth
Elevation
Range (km)
Doppler Factor

Next 0 passes for location: London (51.5072 / 0.1276)

No passes found over London.
INTELSAT 31 (IS-31)